Milwaukee, WI

12:50 AM CST on January 19, 2018 (GMT -0600)
Gen Mitchell International

Weather History for KMKE - February, 2014

Change the Weather History Date:

Wednesday, February 26, 2014

  Actual Average Record
Temperature  
Mean Temperature 8 °F 29 °F  
Max Temperature 15 °F 36 °F 64 °F (2000)
Min Temperature 0 °F 22 °F -6 °F (1879)
Degree Days  
Heating Degree Days 57 36  
Month to date heating degree days 1243 1023  
Since 1 July heating degree days 5546 4908  
Cooling Degree Days 0 0  
Month to date cooling degree days 0 0  
Year to date cooling degree days 0 0  
Moisture  
Dew Point -5 °F    
Average Humidity 52    
Maximum Humidity 65    
Minimum Humidity 38    
Precipitation  
Precipitation T in 0.06 in 1.25 in (1912)
Month to date precipitation 1.62 1.52  
Year to date precipitation 2.73 3.28  
Snow  
Snow T in 0.30 in 12.50 in (1912)
Month to date snowfall 15.6 9.2  
Since 1 July snowfall 56.5 37.2  
Snow Depth 9.00 in    
Sea Level Pressure  
Sea Level Pressure 29.92 in    
Wind  
Wind Speed 15 mph (West)    
Max Wind Speed 31 mph    
Max Gust Speed 40 mph    
Visibility 9 miles    
Events Snow    
T = Trace of Precipitation, MM = Missing Value Source: NWS Daily Summary

Daily Weather History Graph

Daily Weather History Graph

Search for Another Location

Airport or City:

Trip Planner

Search our weather history database for the weather conditions in past years. The results will help you decide how hot, cold, wet, or windy it might be!

Date:

Astronomy

Feb. 26, 2014 Rise Set
Actual Time 6:32 AM CST 5:37 PM CST
Civil Twilight 6:03 AM CST 6:05 PM CST
Nautical Twilight 5:30 AM CST 6:38 PM CST
Astronomical Twilight 4:58 AM CST 7:11 PM CST
Moon 4:21 AM CST (2/26) 2:48 PM CST (2/26)
Length of Visible Light 12h 02m
Length of Day
11h 04m
Waning Crescent, 10% of the Moon is Illuminated
Feb 26
Waning Crescent
Mar 1
New
Mar 8
First Quarter
Mar 16
Full
Mar 23
Last Quarter

Hourly Weather History & Observations

Time (CST) Temp. Windchill Dew Point Humidity Pressure Visibility Wind Dir Wind Speed Gust Speed Precip Events Conditions
12:52 AM 3.9 °F -13.7 °F -8.0 °F 58% 30.24 in 10.0 mi WNW 13.8 mph 20.7 mph N/A   Partly Cloudy
1:52 AM 3.0 °F -14.8 °F -8.0 °F 60% 30.24 in 10.0 mi NW 13.8 mph - N/A   Partly Cloudy
2:52 AM 1.9 °F -15.5 °F -9.0 °F 60% 30.24 in 10.0 mi WNW 12.7 mph - N/A   Clear
3:52 AM 1.0 °F -16.6 °F -9.9 °F 60% 30.23 in 10.0 mi NW 12.7 mph - N/A   Partly Cloudy
4:52 AM 1.0 °F -14.0 °F -11.0 °F 57% 30.23 in 10.0 mi WNW 9.2 mph - N/A   Partly Cloudy
5:52 AM -0.0 °F -15.3 °F -11.0 °F 60% 30.22 in 10.0 mi WNW 9.2 mph - N/A   Clear
6:52 AM -0.0 °F -14.2 °F -11.0 °F 60% 30.20 in 10.0 mi West 8.1 mph - N/A   Partly Cloudy
7:52 AM -0.0 °F -15.3 °F -9.9 °F 63% 30.20 in 10.0 mi West 9.2 mph - N/A   Partly Cloudy
8:52 AM 1.0 °F -15.8 °F -9.9 °F 60% 30.18 in 10.0 mi West 11.5 mph - N/A   Partly Cloudy
9:52 AM 3.0 °F -16.7 °F -11.0 °F 52% 30.14 in 10.0 mi WSW 17.3 mph - N/A   Partly Cloudy
10:52 AM 7.0 °F -11.0 °F -9.9 °F 46% 30.10 in 10.0 mi WSW 16.1 mph - N/A   Partly Cloudy
11:52 AM 9.0 °F -8.5 °F -7.1 °F 48% 30.05 in 10.0 mi SW 16.1 mph 24.2 mph N/A   Mostly Cloudy
12:52 PM 10.0 °F -9.1 °F -8.0 °F 44% 29.99 in 10.0 mi SW 20.7 mph 28.8 mph N/A   Mostly Cloudy
1:52 PM 12.0 °F -7.7 °F -9.0 °F 39% 29.93 in 10.0 mi WSW 24.2 mph 33.4 mph N/A   Mostly Cloudy
2:52 PM 10.9 °F -8.3 °F -9.0 °F 40% 29.86 in 10.0 mi SW 21.9 mph 34.5 mph N/A   Mostly Cloudy
3:52 PM 10.0 °F -10.0 °F -9.0 °F 42% 29.84 in 10.0 mi WSW 23.0 mph 39.1 mph N/A   Mostly Cloudy
4:52 PM 10.0 °F -7.6 °F -7.1 °F 46% 29.78 in 10.0 mi WSW 17.3 mph 28.8 mph N/A   Mostly Cloudy
5:52 PM 10.0 °F -8.6 °F -6.0 °F 48% 29.75 in 10.0 mi WSW 19.6 mph 33.4 mph N/A   Scattered Clouds
6:52 PM 10.9 °F -6.5 °F -2.9 °F 54% 29.74 in 10.0 mi WSW 17.3 mph 27.6 mph N/A   Mostly Cloudy
7:52 PM 12.0 °F -5.1 °F -0.9 °F 56% 29.72 in 10.0 mi WSW 17.3 mph 28.8 mph N/A   Mostly Cloudy
8:52 PM 12.9 °F -2.8 °F 1.0 °F 59% 29.68 in 10.0 mi WSW 15.0 mph - N/A   Mostly Cloudy
9:52 PM 12.9 °F -0.9 °F 1.9 °F 62% 29.65 in 10.0 mi West 11.5 mph - N/A   Partly Cloudy
10:52 PM 14.0 °F 1.2 °F 3.0 °F 62% 29.62 in 10.0 mi WSW 10.4 mph - N/A   Partly Cloudy
11:40 PM 15.1 °F -0.1 °F 5.0 °F 64% 29.58 in 4.0 mi West 15.0 mph 23.0 mph N/A   Haze
11:47 PM 15.8 °F 0.9 °F 6.8 °F 68% 29.58 in 2.5 mi West 15.0 mph 25.3 mph 0.00 in Snow Light Snow
11:49 PM 15.8 °F -0.2 °F 6.8 °F 68% 29.58 in 3.0 mi WNW 17.3 mph 25.3 mph 0.00 in Snow Light Snow
11:52 PM 14.0 °F -2.0 °F 6.1 °F 71% 29.63 in 3.0 mi West 16.1 mph 25.3 mph 0.00 in Snow Light Snow
11:54 PM 14.0 °F -0.8 °F 7.0 °F 74% 29.58 in 3.0 mi WNW 13.8 mph 24.2 mph 0.00 in Snow Light Snow